Tracking 19476 objects as of 17-Jan-2019
HD Live streaming from Space Station
objects crossing your sky now

ASTRID 2

Track ASTRID 2 now!
10-day predictions
ASTRID 2 is classified as:


NORAD ID: 25568
Int'l Code: 1998-072B
Perigee: 978.3 km
Apogee: 1,016.8 km
Inclination: 82.9 °
Period: 104.9 minutes
Semi major axis: 7368 km
RCS: 0.534 m2 (medium)
Launch date: December 10, 1998
Source: Sweden (SWED)
Launch site: PLESETSK MISSILE AND SPACE COMPLEX (PKMTR)
aabbcc
Your satellite tracking list
Your tracking list is empty




NASA's NSSDC Master Catalog

Two Line Element Set (TLE):
1 25568U 98072B   19017.18404942  .00000042  00000-0  28773-4 0  9999
2 25568  82.9499 280.3651 0026142  53.1160 100.6606 13.72550598  6836
Source of the keplerian elements: AFSPC